千帆星座-31 (QIANFAN-31)

导读

QIANFAN-31 是中国北斗卫星导航系统的重要组成部分,主要用于提供高精度定位、导航和授时服务。该卫星采用先进技术和稳定平台,增强了系统的覆盖范围和可靠性。QIANFAN-31 的成功发射进一步提升了北斗系统在全球范围内的竞争力,为交通运输、气象预报、应急救援等多个领域提供了有力支持。

基本信息
目录编号:
61564
目录名称:
QIANFAN-31
国际标识:
2024-185N
轨道中心:
EARTH
卫星名称:
千帆星座-31
卫星全名:
千帆星座-31 (QIANFAN-31)
卫星状态:
在轨 (已飞行696 天)
发射日期:
2024-10-15 UTC
国别 :
中国 (CN)
星等 :
--
该卫星已列入 空间交会检测服务 Space Conjunction Data Service (SCDS) ,当前飞行风险评估等级: 无高风险
轨道信息
数据来源 国际轨道数据 AOE轨道数据
星历时间 2026-09-11T13:27:28+0800
11小时前
查看轨道信息
2026-09-10T11:00:00+0800
1天前
查看轨道信息
半长轴 7420.881km 7420.889km
偏心率 0.0005753 0.0005677
轨道倾角 88.979° 88.980°
近地点辐角 326.432° 333.774°
升交点赤经 52.142° 52.257°
平近点角 33.647° 39.816°
近地点 1038.474km 1038.539km
远地点 1047.014km 1046.965km
周期 106.033分钟 106.034分钟
每日圈数 13.58062 13.580599
详细信息
卫星平台:
31
覆盖范围:
全球
运营商:
上海垣信卫星科技有限公司
运营商所在国:
中国
使用方式:
暂无
卫星简介
千帆星座,也被称为“G60星链”计划,是中国版“星链”的重要组成部分,旨在打造一个由1.4万多颗低轨宽频多媒体卫星构成的庞大星座。千帆星座计划由上海垣信卫星科技有限公司负责实施,于2023年启动建设。该项目是我国第二个低轨卫星大星座,旨在通过构建庞大的卫星网络,为全球用户提供高质量的通信和宽带互联网服务。
2D轨道图
3D轨道图
轨道高度分析图
轨道倾角分析图
轨道综合分析图
查看轨道综合分析图
交会数据列表
事件ID 空间交会对象 最接近时刻(TCA) 交会距离 交会风险概率(CRP) 交会风险指数(CRI) 操作
CDM_260912-120701-088006-156425
2026-09-12T
12:07:49+0000
2.277 km
极远距离
1.984464E-6 低风险 0.41
与全量物体交会距离演化趋势
与全量物体交会风险概率演化趋势